Regional Weather Roundup
Issued by NWS Cleveland, OH

Home | Current Version | Previous Version | Text Only | Print | Product List | Glossary Off
Versions: 1 2 3 4 5 6 7 8 9 10 11 12 13 14 15 16 17 18 19 20 21 22 23 24 25 26 27 28 29 30 31 32 33 34 35 36 37 38 39 40 41 42 43 44 45 46 47 48 49 50

000
ASUS41 KCLE 282010
RWRCLE
OHIO REGIONAL WEATHER ROUNDUP
NATIONAL WEATHER SERVICE CLEVELAND, OH
300 PM EST SAT FEB 28 2015

NOTE: "FAIR" INDICATES FEW OR NO CLOUDS BELOW 12,000 FEET WITH NO
SIGNIFICANT WEATHER AND/OR OBSTRUCTIONS TO VISIBILITY.

OHZ001>008-015>018-024>027-034-035-043-044-282100-
   NORTHWEST OHIO

CITY           SKY/WX    TMP DP  RH WIND       PRES   REMARKS
DEFIANCE       MOSUNNY   20   1  43 SE6       30.67F WCI  12
FINDLAY        CLOUDY    20   2  45 VRB6      30.66F WCI  12
TOLEDO EXPRESS SUNNY     18   0  45 E7        30.67F WCI   9
TOLEDO EXEC    SUNNY     19   1  45 S6        30.69F WCI  11
LIMA           CLOUDY    21   2  43 E8        30.63F WCI  11
$$

OHZ009>014-019>023-028>033-038-089-282100-
   NORTHEAST OHIO

CITY           SKY/WX    TMP DP  RH WIND       PRES   REMARKS
CLE-HOPKINS    MOSUNNY   24  -1  33 N3        30.71F
CLE-LAKEFRONT  FAIR      19   5  54 N8        30.70F WCI   9
CUY CO. ARPT   MOSUNNY   23   7  50 N9        30.70F WCI  13
LORAIN-ELYRIA  MOSUNNY   20  -2  38 S5        30.68F WCI  13
ASHTABULA      SUNNY     20  -3  36 SW5       30.70F WCI  13
AKRON-CANTON   MOSUNNY   22   0  38 NE7       30.65F WCI  13
WOOSTER        MOSUNNY   19   1  45 E3        30.65F
MANSFIELD      CLOUDY    21  -1  38 SE5       30.62F WCI  15
YOUNGSTOWN     MOSUNNY   24  -4  29 CALM      30.66F
$$

OHZ042-051>053-060>062-070>072-077>081-282100-
  SOUTHWEST OHIO

CITY           SKY/WX    TMP DP  RH WIND       PRES   REMARKS
CINC-COVINGTON CLOUDY    27   8  44 E9        30.59F WCI  18
CINC-LUNKEN    CLOUDY    27   9  46 NE8       30.63F WCI  19
HAMILTON       CLOUDY    27   6  41 E5        30.62F WCI  22
DAYTON         PTSUNNY   24   4  42 E10       30.62F WCI  14
WRIGHT-PAT AFB MOSUNNY   25   3  39 E6        30.63F WCI  18
DAYTON GENERAL PTSUNNY   23   5  46 E6        30.60F WCI  16
WILMINGTON     MOSUNNY   21   6  52 NE6       30.61F WCI  13
$$

OHZ036-037-039>041-045>050-054>059-063>069-073>076-082>088-282100-
  CENTRAL AND SOUTHEAST OHIO

CITY           SKY/WX    TMP DP  RH WIND       PRES   REMARKS
COLUMBUS       FAIR      24   1  36 E5        30.65F WCI  18
OSU AIRPORT    MOSUNNY   23  -2  33 E7        30.63F WCI  15
BOLTON FIELD   SUNNY     23   1  39 E5        30.64F WCI  17
RICKENBACK AFB FAIR      23   6  48 NE6       30.64F WCI  16
NEWARK         PTSUNNY   27   2  34 NE3       30.63F
MARION         CLOUDY    21  -1  38 CALM      30.65F
LANCASTER      SUNNY     26   7  44 NE9       30.63F WCI  17
ZANESVILLE     PTSUNNY   26   1  34 CALM      30.64F
NEW PHILLY     PTSUNNY   26  -1  31 CALM      30.66F
$$



USA.gov is the U.S. government's official web portal to all federal, state and local government web resources and services.